Tracking 29892 objects as of 21-Nov-2024
HD Live streaming from Space Station
objects crossing your sky now

GLOBALSTAR M045

Track GLOBALSTAR M045 now!
10-day predictions
GLOBALSTAR M045 is classified as:


NORAD ID: 25676
Int'l Code: 1999-019A
Perigee: 1,568.1 km
Apogee: 1,570.1 km
Inclination: 52.0 °
Period: 117.4 minutes
Semi major axis: 7940 km
RCS: 2.6523 m2 (large)
Launch date: April 15, 1999
Source: Globalstar (GLOB)
Launch site: TYURATAM MISSILE AND SPACE COMPLEX (TTMTR)
Your satellite tracking list
Your tracking list is empty




NASA's NSSDC Master Catalog

Two Line Element Set (TLE):
1 25676U 99019A   24325.89990750 -.00000043  00000-0  44460-3 0  9996
2 25676  51.9942 178.9290 0001223  98.0465 338.0027 12.27051762167824
Source of the keplerian elements: AFSPC